Year,Month,Day,Hour,Minute,Value (Times are PST for temperature in C)
2006,09,04,00,00,15.30
2006,09,04,00,01,15.30
2006,09,04,00,02,15.30
2006,09,04,00,03,15.30
2006,09,04,00,04,15.30
2006,09,04,00,05,15.30
2006,09,04,00,06,15.30
2006,09,04,00,07,15.30
2006,09,04,00,08,15.30
2006,09,04,00,09,15.30
2006,09,04,00,10,15.30
2006,09,04,00,11,15.30
2006,09,04,00,12,15.30
2006,09,04,00,13,15.30
2006,09,04,00,14,15.20
2006,09,04,00,15,15.20
2006,09,04,00,16,15.20
2006,09,04,00,17,15.20
2006,09,04,00,18,15.20
2006,09,04,00,19,15.20
2006,09,04,00,20,15.20
2006,09,04,00,21,15.20
2006,09,04,00,22,15.20
2006,09,04,00,23,15.20
2006,09,04,00,24,15.10
2006,09,04,00,25,15.10
2006,09,04,00,26,15.10
2006,09,04,00,27,15.10
2006,09,04,00,28,15.10
2006,09,04,00,29,15.10
2006,09,04,00,30,15.10
2006,09,04,00,31,15.10
2006,09,04,00,32,15.10
2006,09,04,00,33,15.10
2006,09,04,00,34,15.10
2006,09,04,00,35,15.10
2006,09,04,00,36,15.10
2006,09,04,00,37,15.10
2006,09,04,00,38,15.10
2006,09,04,00,39,15.10
2006,09,04,00,40,15.10
2006,09,04,00,41,15.10
2006,09,04,00,42,15.10
2006,09,04,00,43,15.10
2006,09,04,00,44,15.00
2006,09,04,00,45,15.00
2006,09,04,00,46,15.00
2006,09,04,00,47,14.90
2006,09,04,00,48,14.90
2006,09,04,00,49,14.90
2006,09,04,00,50,14.80
2006,09,04,00,51,14.80
2006,09,04,00,52,14.80
2006,09,04,00,53,14.80
2006,09,04,00,54,14.80
2006,09,04,00,55,14.70
2006,09,04,00,56,14.70
2006,09,04,00,57,14.70
2006,09,04,00,58,14.60
2006,09,04,00,59,14.60
2006,09,04,01,00,14.60
2006,09,04,01,01,14.50
2006,09,04,01,02,14.50
2006,09,04,01,03,14.50
2006,09,04,01,04,14.40
2006,09,04,01,05,14.40
2006,09,04,01,06,14.40
2006,09,04,01,07,14.40
2006,09,04,01,08,14.40
2006,09,04,01,09,14.40
2006,09,04,01,10,14.40
2006,09,04,01,11,14.40
2006,09,04,01,12,14.40
2006,09,04,01,13,14.40
2006,09,04,01,14,14.40
2006,09,04,01,15,14.40
2006,09,04,01,16,14.40
2006,09,04,01,17,14.40
2006,09,04,01,18,14.40
2006,09,04,01,19,14.40
2006,09,04,01,20,14.40
2006,09,04,01,21,14.40
2006,09,04,01,22,14.40
2006,09,04,01,23,14.40
2006,09,04,01,24,14.30
2006,09,04,01,25,14.30
2006,09,04,01,26,14.30
2006,09,04,01,27,14.30
2006,09,04,01,28,14.30
2006,09,04,01,29,14.30
2006,09,04,01,30,14.20
2006,09,04,01,31,14.20
2006,09,04,01,32,14.20
2006,09,04,01,33,14.20
2006,09,04,01,34,14.20
2006,09,04,01,35,14.20
2006,09,04,01,36,14.20
2006,09,04,01,37,14.20
2006,09,04,01,38,14.20
2006,09,04,01,39,14.20
2006,09,04,01,40,14.20
2006,09,04,01,41,14.20
2006,09,04,01,42,14.20
2006,09,04,01,43,14.10
2006,09,04,01,44,14.10
2006,09,04,01,45,14.10
2006,09,04,01,46,14.10
2006,09,04,01,47,14.10
2006,09,04,01,48,14.00
2006,09,04,01,49,14.00
2006,09,04,01,50,14.00
2006,09,04,01,51,14.00
2006,09,04,01,52,14.00
2006,09,04,01,53,14.00
2006,09,04,01,54,14.00
2006,09,04,01,55,14.00
2006,09,04,01,56,14.00
2006,09,04,01,57,14.00
2006,09,04,01,58,14.00
2006,09,04,01,59,14.00
2006,09,04,02,00,14.00
2006,09,04,02,01,14.00
2006,09,04,02,02,14.00
2006,09,04,02,03,14.00
2006,09,04,02,04,14.00
2006,09,04,02,05,14.10
2006,09,04,02,06,14.10
2006,09,04,02,07,14.10
2006,09,04,02,08,14.10
2006,09,04,02,09,14.10
2006,09,04,02,10,14.10
2006,09,04,02,11,14.10
2006,09,04,02,12,14.20
2006,09,04,02,13,14.20
2006,09,04,02,14,14.20
2006,09,04,02,15,14.20
2006,09,04,02,16,14.20
2006,09,04,02,17,14.20
2006,09,04,02,18,14.20
2006,09,04,02,19,14.20
2006,09,04,02,20,14.20
2006,09,04,02,21,14.20
2006,09,04,02,22,14.20
2006,09,04,02,23,14.20
2006,09,04,02,24,14.20
2006,09,04,02,25,14.20
2006,09,04,02,26,14.20
2006,09,04,02,27,14.20
2006,09,04,02,28,14.10
2006,09,04,02,29,14.10
2006,09,04,02,30,14.10
2006,09,04,02,31,14.10
2006,09,04,02,32,14.10
2006,09,04,02,33,14.10
2006,09,04,02,34,14.10
2006,09,04,02,35,14.10
2006,09,04,02,36,14.10
2006,09,04,02,37,14.10
2006,09,04,02,38,14.10
2006,09,04,02,39,14.10
2006,09,04,02,40,14.00
2006,09,04,02,41,14.00
2006,09,04,02,42,14.00
2006,09,04,02,43,14.00
2006,09,04,02,44,14.00
2006,09,04,02,45,14.00
2006,09,04,02,46,14.00
2006,09,04,02,47,14.00
2006,09,04,02,48,14.00
2006,09,04,02,49,14.00
2006,09,04,02,50,13.90
2006,09,04,02,51,14.00
2006,09,04,02,52,14.00
2006,09,04,02,53,14.00
2006,09,04,02,54,14.00
2006,09,04,02,55,14.00
2006,09,04,02,56,14.00
2006,09,04,02,57,14.00
2006,09,04,02,58,13.90
2006,09,04,02,59,13.90
2006,09,04,03,00,13.90
2006,09,04,03,01,13.90
2006,09,04,03,02,13.90
2006,09,04,03,03,13.90
2006,09,04,03,04,13.90
2006,09,04,03,05,13.90
2006,09,04,03,06,13.90
2006,09,04,03,07,13.80
2006,09,04,03,08,13.80
2006,09,04,03,09,13.80
2006,09,04,03,10,13.80
2006,09,04,03,11,13.80
2006,09,04,03,12,13.70
2006,09,04,03,13,13.70
2006,09,04,03,14,13.70
2006,09,04,03,15,13.70
2006,09,04,03,16,13.70
2006,09,04,03,17,13.70
2006,09,04,03,18,13.70
2006,09,04,03,19,13.70
2006,09,04,03,20,13.60
2006,09,04,03,21,13.60
2006,09,04,03,22,13.60
2006,09,04,03,23,13.60
2006,09,04,03,24,13.60
2006,09,04,03,25,13.60
2006,09,04,03,26,13.60
2006,09,04,03,27,13.50
2006,09,04,03,28,13.50
2006,09,04,03,29,13.50
2006,09,04,03,30,13.50
2006,09,04,03,31,13.50
2006,09,04,03,32,13.40
2006,09,04,03,33,13.40
2006,09,04,03,34,13.40
2006,09,04,03,35,13.30
2006,09,04,03,36,13.30
2006,09,04,03,37,13.30
2006,09,04,03,38,13.30
2006,09,04,03,39,13.30
2006,09,04,03,40,13.30
2006,09,04,03,41,13.30
2006,09,04,03,42,13.30
2006,09,04,03,43,13.30
2006,09,04,03,44,13.30
2006,09,04,03,45,13.30
2006,09,04,03,46,13.30
2006,09,04,03,47,13.30
2006,09,04,03,48,13.20
2006,09,04,03,49,13.20
2006,09,04,03,50,13.20
2006,09,04,03,51,13.20
2006,09,04,03,52,13.20
2006,09,04,03,53,13.10
2006,09,04,03,54,13.10
2006,09,04,03,55,13.10
2006,09,04,03,56,13.10
2006,09,04,03,57,13.10
2006,09,04,03,58,13.10
2006,09,04,03,59,13.10
2006,09,04,04,00,13.10
2006,09,04,04,01,13.10
2006,09,04,04,02,13.10
2006,09,04,04,03,13.10
2006,09,04,04,04,13.10
2006,09,04,04,05,13.10
2006,09,04,04,06,13.10
2006,09,04,04,07,13.10
2006,09,04,04,08,13.10
2006,09,04,04,09,13.10
2006,09,04,04,10,13.10
2006,09,04,04,11,13.10
2006,09,04,04,12,13.10
2006,09,04,04,13,13.10
2006,09,04,04,14,13.10
2006,09,04,04,15,13.10
2006,09,04,04,16,13.00
2006,09,04,04,17,13.00
2006,09,04,04,18,13.00
2006,09,04,04,19,13.00
2006,09,04,04,20,12.90
2006,09,04,04,21,12.90
2006,09,04,04,22,12.90
2006,09,04,04,23,12.90
2006,09,04,04,24,12.80
2006,09,04,04,25,12.80
2006,09,04,04,26,12.80
2006,09,04,04,27,12.80
2006,09,04,04,28,12.80
2006,09,04,04,29,12.80
2006,09,04,04,30,12.80
2006,09,04,04,31,12.70
2006,09,04,04,32,12.70
2006,09,04,04,33,12.70
2006,09,04,04,34,12.70
2006,09,04,04,35,12.70
2006,09,04,04,36,12.60
2006,09,04,04,37,12.60
2006,09,04,04,38,12.60
2006,09,04,04,39,12.60
2006,09,04,04,40,12.60
2006,09,04,04,41,12.50
2006,09,04,04,42,12.50
2006,09,04,04,43,12.50
2006,09,04,04,44,12.50
2006,09,04,04,45,12.50
2006,09,04,04,46,12.50
2006,09,04,04,47,12.50
2006,09,04,04,48,12.50
2006,09,04,04,49,12.50
2006,09,04,04,50,12.50
2006,09,04,04,51,12.50
2006,09,04,04,52,12.50
2006,09,04,04,53,12.50
2006,09,04,04,54,12.50
2006,09,04,04,55,12.50
2006,09,04,04,56,12.50
2006,09,04,04,57,12.50
2006,09,04,04,58,12.50
2006,09,04,04,59,12.50
2006,09,04,05,00,12.50
2006,09,04,05,01,12.40
2006,09,04,05,02,12.40
2006,09,04,05,03,12.40
2006,09,04,05,04,12.40
2006,09,04,05,05,12.30
2006,09,04,05,06,12.30
2006,09,04,05,07,12.30
2006,09,04,05,08,12.30
2006,09,04,05,09,12.30
2006,09,04,05,10,12.40
2006,09,04,05,11,12.40
2006,09,04,05,12,12.40
2006,09,04,05,13,12.40
2006,09,04,05,14,12.40
2006,09,04,05,15,12.40
2006,09,04,05,16,12.40
2006,09,04,05,17,12.40
2006,09,04,05,18,12.40
2006,09,04,05,19,12.40
2006,09,04,05,20,12.40
2006,09,04,05,21,12.30
2006,09,04,05,22,12.30
2006,09,04,05,23,12.30
2006,09,04,05,24,12.30
2006,09,04,05,25,12.30
2006,09,04,05,26,12.30
2006,09,04,05,27,12.30
2006,09,04,05,28,12.30
2006,09,04,05,29,12.30
2006,09,04,05,30,12.20
2006,09,04,05,31,12.20
2006,09,04,05,32,12.20
2006,09,04,05,33,12.20
2006,09,04,05,34,12.10
2006,09,04,05,35,12.10
2006,09,04,05,36,12.10
2006,09,04,05,37,12.10
2006,09,04,05,38,12.00
2006,09,04,05,39,12.00
2006,09,04,05,40,12.00
2006,09,04,05,41,12.00
2006,09,04,05,42,12.00
2006,09,04,05,43,11.90
2006,09,04,05,44,11.90
2006,09,04,05,45,11.90
2006,09,04,05,46,11.90
2006,09,04,05,47,11.90
2006,09,04,05,48,11.90
2006,09,04,05,49,11.90
2006,09,04,05,50,11.90
2006,09,04,05,51,11.90
2006,09,04,05,52,11.90
2006,09,04,05,53,11.80
2006,09,04,05,54,11.80
2006,09,04,05,55,11.80
2006,09,04,05,56,11.80
2006,09,04,05,57,11.80
2006,09,04,05,58,11.80
2006,09,04,05,59,11.80
2006,09,04,06,00,11.80
2006,09,04,06,01,11.70
2006,09,04,06,02,11.70
2006,09,04,06,03,11.70
2006,09,04,06,04,11.60
2006,09,04,06,05,11.60
2006,09,04,06,06,11.60
2006,09,04,06,07,11.60
2006,09,04,06,08,11.60
2006,09,04,06,09,11.60
2006,09,04,06,10,11.60
2006,09,04,06,11,11.60
2006,09,04,06,12,11.60
2006,09,04,06,13,11.60
2006,09,04,06,14,11.60
2006,09,04,06,15,11.60
2006,09,04,06,16,11.60
2006,09,04,06,17,11.60
2006,09,04,06,18,11.60
2006,09,04,06,19,11.60
2006,09,04,06,20,11.60
2006,09,04,06,21,11.60
2006,09,04,06,22,11.60
2006,09,04,06,23,11.60
2006,09,04,06,24,11.60
2006,09,04,06,25,11.60
2006,09,04,06,26,11.60
2006,09,04,06,27,11.60
2006,09,04,06,28,11.60
2006,09,04,06,29,11.60
2006,09,04,06,30,11.60
2006,09,04,06,31,11.60
2006,09,04,06,32,11.60
2006,09,04,06,33,11.60
2006,09,04,06,34,11.70
2006,09,04,06,35,11.70
2006,09,04,06,36,11.70
2006,09,04,06,37,11.70
2006,09,04,06,38,11.70
2006,09,04,06,39,11.70
2006,09,04,06,40,11.70
2006,09,04,06,41,11.70
2006,09,04,06,42,11.70
2006,09,04,06,43,11.70
2006,09,04,06,44,11.70
2006,09,04,06,45,11.70
2006,09,04,06,46,11.70
2006,09,04,06,47,11.70
2006,09,04,06,48,11.70
2006,09,04,06,49,11.70
2006,09,04,06,50,11.60
2006,09,04,06,51,11.60
2006,09,04,06,52,11.60
2006,09,04,06,53,11.60
2006,09,04,06,54,11.70
2006,09,04,06,55,11.70
2006,09,04,06,56,11.70
2006,09,04,06,57,11.70
2006,09,04,06,58,11.70
2006,09,04,06,59,11.70
2006,09,04,07,00,11.70
2006,09,04,07,01,11.70
2006,09,04,07,02,11.70
2006,09,04,07,03,11.70
2006,09,04,07,04,11.70
2006,09,04,07,05,11.60
2006,09,04,07,06,11.60
2006,09,04,07,07,11.60
2006,09,04,07,08,11.60
2006,09,04,07,09,11.60
2006,09,04,07,10,11.60
2006,09,04,07,11,11.60
2006,09,04,07,12,11.60
2006,09,04,07,13,11.60
2006,09,04,07,14,11.60
2006,09,04,07,15,11.60
2006,09,04,07,16,11.60
2006,09,04,07,17,11.60
2006,09,04,07,18,11.60
2006,09,04,07,19,11.60
2006,09,04,07,20,11.60
2006,09,04,07,21,11.70
2006,09,04,07,22,11.70
2006,09,04,07,23,11.70
2006,09,04,07,24,11.70
2006,09,04,07,25,11.70
2006,09,04,07,26,11.70
2006,09,04,07,27,11.80
2006,09,04,07,28,11.80
2006,09,04,07,29,11.80
2006,09,04,07,30,11.80
2006,09,04,07,31,11.80
2006,09,04,07,32,11.80
2006,09,04,07,33,11.80
2006,09,04,07,34,11.90
2006,09,04,07,35,11.90
2006,09,04,07,36,12.00
2006,09,04,07,37,12.00
2006,09,04,07,38,12.10
2006,09,04,07,39,12.10
2006,09,04,07,40,12.20
2006,09,04,07,41,12.20
2006,09,04,07,42,12.20
2006,09,04,07,43,12.30
2006,09,04,07,44,12.30
2006,09,04,07,45,12.30
2006,09,04,07,46,12.30
2006,09,04,07,47,12.40
2006,09,04,07,48,12.40
2006,09,04,07,49,12.50
2006,09,04,07,50,12.50
2006,09,04,07,51,12.60
2006,09,04,07,52,12.60
2006,09,04,07,53,12.70
2006,09,04,07,54,12.70
2006,09,04,07,55,12.80
2006,09,04,07,56,12.80
2006,09,04,07,57,12.80
2006,09,04,07,58,12.90
2006,09,04,07,59,12.90
2006,09,04,08,00,13.00
2006,09,04,08,01,13.00
2006,09,04,08,02,13.00
2006,09,04,08,03,13.10
2006,09,04,08,04,13.10
2006,09,04,08,05,13.10
2006,09,04,08,06,13.20
2006,09,04,08,07,13.20
2006,09,04,08,08,13.30
2006,09,04,08,09,13.30
2006,09,04,08,10,13.30
2006,09,04,08,11,13.40
2006,09,04,08,12,13.40
2006,09,04,08,13,13.50
2006,09,04,08,14,13.50
2006,09,04,08,15,13.60
2006,09,04,08,16,13.60
2006,09,04,08,17,13.60
2006,09,04,08,18,13.70
2006,09,04,08,19,13.70
2006,09,04,08,20,13.80
2006,09,04,08,21,13.90
2006,09,04,08,22,13.90
2006,09,04,08,23,14.00
2006,09,04,08,24,14.00
2006,09,04,08,25,14.10
2006,09,04,08,26,14.20
2006,09,04,08,27,14.20
2006,09,04,08,28,14.20
2006,09,04,08,29,14.20
2006,09,04,08,30,14.30
2006,09,04,08,31,14.30
2006,09,04,08,32,14.40
2006,09,04,08,33,14.40
2006,09,04,08,34,14.50
2006,09,04,08,35,14.50
2006,09,04,08,36,14.60
2006,09,04,08,37,14.60
2006,09,04,08,38,14.70
2006,09,04,08,39,14.70
2006,09,04,08,40,14.80
2006,09,04,08,41,14.80
2006,09,04,08,42,14.90
2006,09,04,08,43,15.00
2006,09,04,08,44,15.00
2006,09,04,08,45,15.10
2006,09,04,08,46,15.20
2006,09,04,08,47,15.20
2006,09,04,08,48,15.30
2006,09,04,08,49,15.30
2006,09,04,08,50,15.40
2006,09,04,08,51,15.50
2006,09,04,08,52,15.60
2006,09,04,08,53,15.60
2006,09,04,08,54,15.70
2006,09,04,08,55,15.70
2006,09,04,08,56,15.80
2006,09,04,08,57,15.90
2006,09,04,08,58,16.10
2006,09,04,08,59,16.10
2006,09,04,09,00,16.20
2006,09,04,09,01,16.30
2006,09,04,09,02,16.40
2006,09,04,09,03,16.40
2006,09,04,09,04,16.50
2006,09,04,09,05,16.60
2006,09,04,09,06,16.60
2006,09,04,09,07,16.70
2006,09,04,09,08,16.70
2006,09,04,09,09,16.70
2006,09,04,09,10,16.80
2006,09,04,09,11,16.80
2006,09,04,09,12,16.90
2006,09,04,09,13,17.00
2006,09,04,09,14,17.00
2006,09,04,09,15,17.10
2006,09,04,09,16,17.20
2006,09,04,09,17,17.30
2006,09,04,09,18,17.30
2006,09,04,09,19,17.40
2006,09,04,09,20,17.50
2006,09,04,09,21,17.60
2006,09,04,09,22,17.70
2006,09,04,09,23,17.80
2006,09,04,09,24,17.90
2006,09,04,09,25,17.90
2006,09,04,09,26,18.10
2006,09,04,09,27,18.20
2006,09,04,09,28,18.30
2006,09,04,09,29,18.40
2006,09,04,09,30,18.50
2006,09,04,09,31,18.60
2006,09,04,09,32,18.60
2006,09,04,09,33,18.80
2006,09,04,09,34,18.90
2006,09,04,09,35,19.10
2006,09,04,09,36,19.20
2006,09,04,09,37,19.20
2006,09,04,09,38,19.30
2006,09,04,09,39,19.40
2006,09,04,09,40,19.40
2006,09,04,09,41,19.50
2006,09,04,09,42,19.50
2006,09,04,09,43,19.60
2006,09,04,09,44,19.60
2006,09,04,09,45,19.60
2006,09,04,09,46,19.60
2006,09,04,09,47,19.60
2006,09,04,09,48,19.60
2006,09,04,09,49,19.60
2006,09,04,09,50,19.60
2006,09,04,09,51,19.60
2006,09,04,09,52,19.70
2006,09,04,09,53,19.70
2006,09,04,09,54,19.70
2006,09,04,09,55,19.80
2006,09,04,09,56,19.80
2006,09,04,09,57,19.80
2006,09,04,09,58,19.80
2006,09,04,09,59,19.80
2006,09,04,10,00,19.90
2006,09,04,10,01,19.90
2006,09,04,10,02,20.00
2006,09,04,10,03,20.10
2006,09,04,10,04,20.20
2006,09,04,10,05,20.30
2006,09,04,10,06,20.50
2006,09,04,10,07,20.60
2006,09,04,10,08,20.70
2006,09,04,10,09,20.70
2006,09,04,10,10,20.70
2006,09,04,10,11,20.60
2006,09,04,10,12,20.50
2006,09,04,10,13,20.50
2006,09,04,10,14,20.40
2006,09,04,10,15,20.40
2006,09,04,10,16,20.50
2006,09,04,10,17,20.50
2006,09,04,10,18,20.60
2006,09,04,10,19,20.70
2006,09,04,10,20,20.80
2006,09,04,10,21,20.90
2006,09,04,10,22,21.00
2006,09,04,10,23,21.10
2006,09,04,10,24,21.30
2006,09,04,10,25,21.40
2006,09,04,10,26,21.50
2006,09,04,10,27,21.60
2006,09,04,10,28,21.60
2006,09,04,10,29,21.80
2006,09,04,10,30,21.90
2006,09,04,10,31,22.00
2006,09,04,10,32,22.00
2006,09,04,10,33,22.10
2006,09,04,10,34,22.10
2006,09,04,10,35,22.10
2006,09,04,10,36,22.10
2006,09,04,10,37,22.10
2006,09,04,10,38,22.10
2006,09,04,10,39,22.00
2006,09,04,10,40,22.00
2006,09,04,10,41,22.00
2006,09,04,10,42,22.00
2006,09,04,10,43,22.00
2006,09,04,10,44,21.90
2006,09,04,10,45,21.90
2006,09,04,10,46,22.00
2006,09,04,10,47,22.00
2006,09,04,10,48,22.00
2006,09,04,10,49,22.00
2006,09,04,10,50,22.10
2006,09,04,10,51,22.10
2006,09,04,10,52,22.10
2006,09,04,10,53,22.20
2006,09,04,10,54,22.20
2006,09,04,10,55,22.30
2006,09,04,10,56,22.40
2006,09,04,10,57,22.50
2006,09,04,10,58,22.60
2006,09,04,10,59,22.60
2006,09,04,11,00,22.60
2006,09,04,11,01,22.60
2006,09,04,11,02,22.60
2006,09,04,11,03,22.60
2006,09,04,11,04,22.50
2006,09,04,11,05,22.50
2006,09,04,11,06,22.50
2006,09,04,11,07,22.40
2006,09,04,11,08,22.30
2006,09,04,11,09,22.30
2006,09,04,11,10,22.20
2006,09,04,11,11,22.20
2006,09,04,11,12,22.20
2006,09,04,11,13,22.30
2006,09,04,11,14,22.40
2006,09,04,11,15,22.40
2006,09,04,11,16,22.40
2006,09,04,11,17,22.40
2006,09,04,11,18,22.50
2006,09,04,11,19,22.60
2006,09,04,11,20,22.60
2006,09,04,11,21,22.70
2006,09,04,11,22,22.80
2006,09,04,11,23,22.90
2006,09,04,11,24,22.90
2006,09,04,11,25,22.90
2006,09,04,11,26,23.00
2006,09,04,11,27,23.10
2006,09,04,11,28,23.20
2006,09,04,11,29,23.20
2006,09,04,11,30,23.30
2006,09,04,11,31,23.30
2006,09,04,11,32,23.30
2006,09,04,11,33,23.30
2006,09,04,11,34,23.30
2006,09,04,11,35,23.30
2006,09,04,11,36,23.20
2006,09,04,11,37,23.20
2006,09,04,11,38,23.30
2006,09,04,11,39,23.30
2006,09,04,11,40,23.30
2006,09,04,11,41,23.30
2006,09,04,11,42,23.30
2006,09,04,11,43,23.20
2006,09,04,11,44,23.20
2006,09,04,11,45,23.20
2006,09,04,11,46,23.20
2006,09,04,11,47,23.20
2006,09,04,11,48,23.20
2006,09,04,11,49,23.20
2006,09,04,11,50,23.30
2006,09,04,11,51,23.30
2006,09,04,11,52,23.50
2006,09,04,11,53,23.50
2006,09,04,11,54,23.40
2006,09,04,11,55,23.30
2006,09,04,11,56,23.00
2006,09,04,11,57,22.90
2006,09,04,11,58,22.90
2006,09,04,11,59,22.80
2006,09,04,12,00,22.80
2006,09,04,12,01,22.70
2006,09,04,12,02,22.80
2006,09,04,12,03,22.80
2006,09,04,12,04,22.90
2006,09,04,12,05,22.90
2006,09,04,12,06,22.80
2006,09,04,12,07,22.80
2006,09,04,12,08,22.80
2006,09,04,12,09,22.80
2006,09,04,12,10,22.80
2006,09,04,12,11,22.90
2006,09,04,12,12,22.90
2006,09,04,12,13,23.00
2006,09,04,12,14,23.20
2006,09,04,12,15,23.30
2006,09,04,12,16,23.30
2006,09,04,12,17,23.40
2006,09,04,12,18,23.40
2006,09,04,12,19,23.50
2006,09,04,12,20,23.60
2006,09,04,12,21,23.70
2006,09,04,12,22,23.70
2006,09,04,12,23,23.70
2006,09,04,12,24,23.70
2006,09,04,12,25,23.50
2006,09,04,12,26,23.40
2006,09,04,12,27,23.30
2006,09,04,12,28,23.30
2006,09,04,12,29,23.30
2006,09,04,12,30,23.40
2006,09,04,12,31,23.50
2006,09,04,12,32,23.50
2006,09,04,12,33,23.40
2006,09,04,12,34,23.30
2006,09,04,12,35,23.20
2006,09,04,12,36,23.20
2006,09,04,12,37,23.30
2006,09,04,12,38,23.30
2006,09,04,12,39,23.30
2006,09,04,12,40,23.40
2006,09,04,12,41,23.50
2006,09,04,12,42,23.60
2006,09,04,12,43,23.60
2006,09,04,12,44,23.60
2006,09,04,12,45,23.60
2006,09,04,12,46,23.60
2006,09,04,12,47,23.60
2006,09,04,12,48,23.70
2006,09,04,12,49,23.70
2006,09,04,12,50,23.80
2006,09,04,12,51,23.90
2006,09,04,12,52,23.90
2006,09,04,12,53,23.90
2006,09,04,12,54,23.90
2006,09,04,12,55,23.90
2006,09,04,12,56,23.90
2006,09,04,12,57,23.80
2006,09,04,12,58,23.80
2006,09,04,12,59,23.80
2006,09,04,13,00,23.70
2006,09,04,13,01,23.70
2006,09,04,13,02,23.70
2006,09,04,13,03,23.80
2006,09,04,13,04,23.90
2006,09,04,13,05,24.00
2006,09,04,13,06,24.10
2006,09,04,13,07,24.20
2006,09,04,13,08,24.20
2006,09,04,13,09,24.20
2006,09,04,13,10,24.10
2006,09,04,13,11,24.10
2006,09,04,13,12,24.10
2006,09,04,13,13,24.10
2006,09,04,13,14,24.10
2006,09,04,13,15,24.10
2006,09,04,13,16,24.10
2006,09,04,13,17,24.20
2006,09,04,13,18,24.20
2006,09,04,13,19,24.20
2006,09,04,13,20,24.30
2006,09,04,13,21,24.40
2006,09,04,13,22,24.50
2006,09,04,13,23,24.50
2006,09,04,13,24,24.60
2006,09,04,13,25,24.70
2006,09,04,13,26,24.80
2006,09,04,13,27,24.90
2006,09,04,13,28,24.90
2006,09,04,13,29,24.80
2006,09,04,13,30,24.80
2006,09,04,13,31,24.80
2006,09,04,13,32,24.80
2006,09,04,13,33,24.90
2006,09,04,13,34,24.90
2006,09,04,13,35,24.90
2006,09,04,13,36,24.90
2006,09,04,13,37,25.00
2006,09,04,13,38,25.00
2006,09,04,13,39,25.10
2006,09,04,13,40,25.10
2006,09,04,13,41,25.20
2006,09,04,13,42,25.30
2006,09,04,13,43,25.40
2006,09,04,13,44,25.50
2006,09,04,13,45,25.60
2006,09,04,13,46,25.70
2006,09,04,13,47,25.80
2006,09,04,13,48,25.80
2006,09,04,13,49,25.80
2006,09,04,13,50,25.80
2006,09,04,13,51,25.60
2006,09,04,13,52,25.40
2006,09,04,13,53,25.30
2006,09,04,13,54,25.30
2006,09,04,13,55,25.20
2006,09,04,13,56,25.10
2006,09,04,13,57,25.10
2006,09,04,13,58,25.10
2006,09,04,13,59,25.10
2006,09,04,14,00,25.00
2006,09,04,14,01,25.00
2006,09,04,14,02,25.10
2006,09,04,14,03,25.10
2006,09,04,14,04,25.10
2006,09,04,14,05,25.10
2006,09,04,14,06,25.10
2006,09,04,14,07,25.10
2006,09,04,14,08,25.10
2006,09,04,14,09,25.10
2006,09,04,14,10,25.10
2006,09,04,14,11,25.10
2006,09,04,14,12,25.10
2006,09,04,14,13,25.10
2006,09,04,14,14,25.10
2006,09,04,14,15,25.00
2006,09,04,14,16,24.90
2006,09,04,14,17,24.90
2006,09,04,14,18,24.90
2006,09,04,14,19,24.90
2006,09,04,14,20,24.90
2006,09,04,14,21,24.90
2006,09,04,14,22,24.90
2006,09,04,14,23,24.80
2006,09,04,14,24,24.80
2006,09,04,14,25,24.80
2006,09,04,14,26,24.80
2006,09,04,14,27,24.80
2006,09,04,14,28,24.80
2006,09,04,14,29,24.90
2006,09,04,14,30,25.00
2006,09,04,14,31,25.20
2006,09,04,14,32,25.30
2006,09,04,14,33,25.30
2006,09,04,14,34,25.30
2006,09,04,14,35,25.20
2006,09,04,14,36,25.20
2006,09,04,14,37,25.20
2006,09,04,14,38,25.30
2006,09,04,14,39,25.30
2006,09,04,14,40,25.30
2006,09,04,14,41,25.40
2006,09,04,14,42,25.40
2006,09,04,14,43,25.50
2006,09,04,14,44,25.50
2006,09,04,14,45,25.50
2006,09,04,14,46,25.60
2006,09,04,14,47,25.70
2006,09,04,14,48,25.70
2006,09,04,14,49,25.80
2006,09,04,14,50,25.90
2006,09,04,14,51,25.90
2006,09,04,14,52,26.00
2006,09,04,14,53,26.00
2006,09,04,14,54,25.90
2006,09,04,14,55,26.00
2006,09,04,14,56,26.10
2006,09,04,14,57,26.10
2006,09,04,14,58,26.20
2006,09,04,14,59,26.30
2006,09,04,15,00,26.30
2006,09,04,15,01,26.40
2006,09,04,15,02,26.40
2006,09,04,15,03,26.30
2006,09,04,15,04,26.30
2006,09,04,15,05,26.20
2006,09,04,15,06,26.20
2006,09,04,15,07,26.20
2006,09,04,15,08,26.10
2006,09,04,15,09,26.00
2006,09,04,15,10,25.90
2006,09,04,15,11,25.90
2006,09,04,15,12,25.90
2006,09,04,15,13,25.80
2006,09,04,15,14,25.60
2006,09,04,15,15,25.50
2006,09,04,15,16,25.40
2006,09,04,15,17,25.30
2006,09,04,15,18,25.30
2006,09,04,15,19,25.30
2006,09,04,15,20,25.30
2006,09,04,15,21,25.20
2006,09,04,15,22,25.00
2006,09,04,15,23,24.90
2006,09,04,15,24,24.80
2006,09,04,15,25,24.80
2006,09,04,15,26,24.80
2006,09,04,15,27,24.80
2006,09,04,15,28,24.70
2006,09,04,15,29,24.70
2006,09,04,15,30,24.70
2006,09,04,15,31,24.60
2006,09,04,15,32,24.60
2006,09,04,15,33,24.70
2006,09,04,15,34,24.70
2006,09,04,15,35,24.80
2006,09,04,15,36,24.90
2006,09,04,15,37,25.00
2006,09,04,15,38,25.00
2006,09,04,15,39,25.00
2006,09,04,15,40,25.00
2006,09,04,15,41,25.00
2006,09,04,15,42,25.00
2006,09,04,15,43,24.90
2006,09,04,15,44,24.80
2006,09,04,15,45,24.70
2006,09,04,15,46,24.60
2006,09,04,15,47,24.50
2006,09,04,15,48,24.50
2006,09,04,15,49,24.50
2006,09,04,15,50,24.60
2006,09,04,15,51,24.70
2006,09,04,15,52,24.80
2006,09,04,15,53,24.80
2006,09,04,15,54,24.80
2006,09,04,15,55,24.80
2006,09,04,15,56,24.90
2006,09,04,15,57,24.90
2006,09,04,15,58,24.90
2006,09,04,15,59,25.00
2006,09,04,16,00,25.10
2006,09,04,16,01,25.10
2006,09,04,16,02,24.90
2006,09,04,16,03,24.90
2006,09,04,16,04,24.80
2006,09,04,16,05,24.70
2006,09,04,16,06,24.60
2006,09,04,16,07,24.70
2006,09,04,16,08,24.60
2006,09,04,16,09,24.50
2006,09,04,16,10,24.40
2006,09,04,16,11,24.40
2006,09,04,16,12,24.40
2006,09,04,16,13,24.30
2006,09,04,16,14,24.20
2006,09,04,16,15,24.10
2006,09,04,16,16,24.10
2006,09,04,16,17,24.10
2006,09,04,16,18,24.10
2006,09,04,16,19,24.10
2006,09,04,16,20,24.20
2006,09,04,16,21,24.20
2006,09,04,16,22,24.30
2006,09,04,16,23,24.30
2006,09,04,16,24,24.40
2006,09,04,16,25,24.40
2006,09,04,16,26,24.50
2006,09,04,16,27,24.50
2006,09,04,16,28,24.40
2006,09,04,16,29,24.40
2006,09,04,16,30,24.40
2006,09,04,16,31,24.40
2006,09,04,16,32,24.40
2006,09,04,16,33,24.40
2006,09,04,16,34,24.40
2006,09,04,16,35,24.20
2006,09,04,16,36,24.10
2006,09,04,16,37,23.90
2006,09,04,16,38,23.70
2006,09,04,16,39,23.60
2006,09,04,16,40,23.60
2006,09,04,16,41,23.50
2006,09,04,16,42,23.40
2006,09,04,16,43,23.60
2006,09,04,16,44,23.60
2006,09,04,16,45,23.70
2006,09,04,16,46,23.70
2006,09,04,16,47,23.70
2006,09,04,16,48,23.70
2006,09,04,16,49,23.70
2006,09,04,16,50,23.70
2006,09,04,16,51,23.70
2006,09,04,16,52,23.70
2006,09,04,16,53,23.70
2006,09,04,16,54,23.80
2006,09,04,16,55,23.90
2006,09,04,16,56,23.90
2006,09,04,16,57,23.90
2006,09,04,16,58,23.90
2006,09,04,16,59,23.80
2006,09,04,17,00,23.70
2006,09,04,17,01,23.60
2006,09,04,17,02,23.40
2006,09,04,17,03,23.30
2006,09,04,17,04,23.20
2006,09,04,17,05,23.10
2006,09,04,17,06,22.90
2006,09,04,17,07,22.90
2006,09,04,17,08,22.90
2006,09,04,17,09,22.90
2006,09,04,17,10,22.90
2006,09,04,17,11,23.00
2006,09,04,17,12,23.00
2006,09,04,17,13,22.90
2006,09,04,17,14,22.90
2006,09,04,17,15,22.90
2006,09,04,17,16,22.90
2006,09,04,17,17,22.90
2006,09,04,17,18,23.00
2006,09,04,17,19,23.10